Location: Capelle
(50.3413°N, 1.9974°E)
Time: 23:50:35
(UTC+00:00)

DMSP B5D1-3 - Pass Details

Date: 12 January 2026
Orbit: 759 x 772 km, 98.5° (Epoch: 17 February)

Event Time Altitude Azimuth Distance (km) Brightness Sun altitude
Exits shadow 18:40:19 57° 84° (E) 897 4.4 -22.7°
Maximum altitude 18:40:38 58° 101° (E) 886 4.4 -22.7°
Drops below altitude 10° 18:45:36 10° 181° (S) 2,289 7.0 -23.5°
Sets 18:47:56 0° 185° (S) 3,212 7.9 -23.9°
